Tracking 19827 objects as of 21-Aug-2019
HD Live streaming from Space Station
objects crossing your sky now

FENGYUN 1C DEB

Track FENGYUN 1C DEB now!
10-day predictions


NORAD ID: 30477
Int'l Code: 1999-025AGQ
Perigee: 853.7 km
Apogee: 1,540.0 km
Inclination: 99.4 °
Period: 109.2 minutes
Semi major axis: 7567 km
RCS: 0.0105 m2 (small)
Launch date: May 10, 1999
Source: People's Republic of China (PRC)
Launch site: Taiyaun Space Center, China (TSC)

Note: This is SATELLITE DEBRIS
aabbcc
Your satellite tracking list
Your tracking list is empty




NASA's NSSDC Master Catalog

Two Line Element Set (TLE):
1 30477U 99025AGQ 19232.76984154  .00000426  00000-0  69002-3 0  9999
2 30477  99.4182 153.6473 0453473  23.4595   2.4703 13.18693903603209
Source of the keplerian elements: AFSPC